This is the latest recevied weather packets stored in our database for station/object NK0Z-13. If no packets are shown the sender has not sent any weather packets the latest 10 day(s).
| Time | Temp. | Humidity | Pressure | Rain* | Wind** | Luminosity | Snow |
|---|---|---|---|---|---|---|---|
| 1777374802 | 7.22° C | 86% | 1018.2 hPa | 0 mm | - | 0 W/m² | - |
| 1777374202 | 7.22° C | 86% | 1018.8 hPa | 0 mm | - | 0 W/m² | - |
| 1777373601 | 7.22° C | 87% | 1018.5 hPa | 0 mm | - | 0 W/m² | - |
| 1777372998 | 6.67° C | 87% | 1018.7 hPa | 0 mm | - | 0 W/m² | - |
| 1777372393 | 6.67° C | 87% | 1018.4 hPa | 0 mm | - | 0 W/m² | - |
| 1777371788 | 6.67° C | 89% | 1018.7 hPa | 0 mm | - | 0 W/m² | - |
| 1777371187 | 6.11° C | 90% | 1018.1 hPa | 0 mm | - | 0 W/m² | - |
| 1777370585 | 5.56° C | 90% | 1018.2 hPa | 0 mm | - | 0 W/m² | - |
| 1777369983 | 5.56° C | 89% | 1018.4 hPa | 0 mm | - | 0 W/m² | - |
| 1777369379 | 5.56° C | 89% | 1018.1 hPa | 0 mm | - | 0 W/m² | - |
| 1777368778 | 5.56° C | 88% | 1018.3 hPa | 0 mm | - | 0 W/m² | - |
| 1777368175 | 6.11° C | 88% | 1018.2 hPa | 0 mm | - | 0 W/m² | - |
| 1777367575 | 6.11° C | 88% | 1018.4 hPa | 0 mm | - | 0 W/m² | - |
| 1777366971 | 6.11° C | 87% | 1017.8 hPa | 0 mm | - | 0 W/m² | - |
| 1777366367 | 6.11° C | 87% | 1017.4 hPa | 0 mm | - | 0 W/m² | - |
| 1777365766 | 6.11° C | 87% | 1017.2 hPa | 0 mm | - | 0 W/m² | - |
| 1777365165 | 6.11° C | 87% | 1017.2 hPa | 0 mm | - | 0 W/m² | - |
| 1777364560 | 6.11° C | 87% | 1017.6 hPa | 0 mm | - | 0 W/m² | - |
| 1777363959 | 6.11° C | 86% | 1018 hPa | 0 mm | - | 0 W/m² | - |
| 1777363358 | 6.67° C | 85% | 1018.1 hPa | 0 mm | - | 0 W/m² | - |
| 1777362758 | 6.67° C | 84% | 1017.8 hPa | 0 mm | - | 0 W/m² | - |
| 1777362153 | 6.67° C | 84% | 1017.8 hPa | 0 mm | - | 0 W/m² | - |
| 1777361547 | 6.67° C | 83% | 1017.7 hPa | 0 mm | - | 0 W/m² | - |
| 1777360947 | 7.22° C | 82% | 1017.6 hPa | 0 mm | - | 0 W/m² | - |
| 1777360347 | 7.22° C | 81% | 1018.2 hPa | 0 mm | - | 0 W/m² | - |
* Rain latest hour (hover to see other rain measurements)
** Current wind speed in m/s (hover to see current wind gust speed)